Location: Helsinki
(60.1699°N, 24.9384°E)
Time: 20:24:21
(UTC+02:00)

Transit 2A Rocket - Pass Details

Date: 26 September 2023
Orbit: 593 x 903 km, 66.7° (Epoch: 28 November)

Event Time Altitude Azimuth Distance (km) Brightness Sun altitude
Rises 23:19:27 0° 309° (NW) 3,027 9.2 -27.4°
Reaches altitude 10° 23:21:53 10° 305° (NW) 2,067 8.1 -27.5°
Enters shadow 23:25:13 41° 278° (W) 914 5.6 -27.8°
Maximum altitude 23:26:23 54° 229° (SW) 758 - -27.8°
Drops below altitude 10° 23:30:38 10° 152° (SSE) 1,946 - -28.1°
Sets 23:32:51 0° 148° (SSE) 2,832 - -28.2°
